sat.trackr.live / text

‹ back to catalog

STARLINK-3045

NORAD 49173 · 2021-082AV

PAYLOAD ACTIVE UNKNOWN

§ Identity

Operator
Country
US
Launch date
2021-09-14
Launch site
AFWTR
Launch vehicle
Mass (kg)
RCS (m²)

Purposes: comms

External: N2YO · Heavens-Above · Gunter

§ Orbital elements

Epoch: 2026-05-25T03:05:34.482048Z

Period
96.11 min
Inclination
70.0000°
Eccentricity
0.0002408
Mean motion
14.98324417 rev/d
Perigee alt
570.4 km
Apogee alt
573.7 km
Semi-major
6,950.2 km
B*
-6.4784e-6
RAAN
81.7193°
Arg perigee
266.0306°
Mean anomaly
94.0577°
Rev number
25,792

§ Raw data

STARLINK-30451 49173U 21082AV  26145.12887132 -.00000170  00000+0 -64784-5 0  99902 49173  70.0000  81.7193 0002408 266.0306  94.0577 14.98324417257929

JSON: /api/v1/satellites/49173 · /tle

For live sub-satellite position, see the globe view (requires WebGL).

§ Visibility from observer

Set your observer location to see the next 7 days of passes ≥ 10°. The values pass through the URL so the page stays shareable.

No JS? Fill the form by hand. The geolocation button needs JavaScript.